When you browse on this site, cookies collect data to enhance your experience and personalize the content and advertising you see.
Visit our Privacy Policy to learn more. By continuing to use the site, you agree to this use of cookies and data.
  • In Norway
  • List of Countries
  • For 7 days
  • Water Temperature
  • Satellite Maps
  • Weather Map
  • Weather Widgets
  • user-avatar
    Login

    Hourly Weather Tibissa

    Today, 20 January, Sunday

    Time Temperature Precipitation Wind Pressure Humidity
    00:00 +6°C° 0 mm 1 mps 682 mmHg 85%
    01:00 +4°C° 0 mm 0 mps 681 mmHg 88%
    02:00 +4°C° 0 mm 0 mps 681 mmHg 88%
    03:00 +3°C° 0 mm 0 mps 681 mmHg 89%
    04:00 +3°C° 0 mm 0 mps 681 mmHg 90%
    05:00 +4°C° 0 mm 1 mps 681 mmHg 89%
    06:00 +4°C° 0 mm 1 mps 681 mmHg 88%
    07:00 +3°C° 0 mm 1 mps 681 mmHg 87%
    08:00 +4°C° 0 mm 2 mps 681 mmHg 80%
    09:00 +4°C° 0 mm 3 mps 682 mmHg 72%
    10:00 +7°C° 0 mm 3 mps 682 mmHg 65%
    11:00 +7°C° 0 mm 4 mps 682 mmHg 58%
    12:00 +8°C° 0 mm 5 mps 681 mmHg 50%
    13:00 +9°C° 0 mm 7 mps 681 mmHg 43%
    14:00 +9°C° 0 mm 8 mps 681 mmHg 46%
    15:00 +7°C° 0 mm 8 mps 680 mmHg 48%
    16:00 +7°C° 0 mm 9 mps 680 mmHg 51%
    17:00 +6°C° 0 mm 8 mps 679 mmHg 58%
    18:00 +5°C° 0 mm 7 mps 679 mmHg 65%
    19:00 +4°C° 0 mm 7 mps 679 mmHg 72%
    20:00 +4°C° 0.1 mm 6 mps 679 mmHg 74%
    21:00 +4°C° 0.1 mm 6 mps 679 mmHg 76%
    22:00 +4°C° 0.1 mm 6 mps 679 mmHg 79%
    23:00 +4°C° 0 mm 6 mps 679 mmHg 81%

    Tomorrow, 21 January, Monday

    Time Temperature Precipitation Wind Pressure Humidity
    00:00 +4°C° 0 mm 6 mps 678 mmHg 82%
    01:00 +3°C° 0 mm 6 mps 678 mmHg 84%
    02:00 +3°C° 0 mm 5 mps 678 mmHg 86%
    03:00 +3°C° 0 mm 5 mps 678 mmHg 88%
    04:00 +4°C° 0 mm 4 mps 678 mmHg 90%
    05:00 +4°C° 0 mm 4 mps 678 mmHg 90%
    06:00 +4°C° 0 mm 3 mps 678 mmHg 90%
    07:00 +5°C° 0 mm 2 mps 678 mmHg 90%
    08:00 +5°C° 0 mm 3 mps 678 mmHg 84%
    09:00 +7°C° 0 mm 3 mps 679 mmHg 77%
    10:00 +8°C° 0 mm 3 mps 679 mmHg 70%
    11:00 +8°C° 0 mm 4 mps 679 mmHg 66%
    12:00 +9°C° 0 mm 5 mps 679 mmHg 61%
    13:00 +10°C° 0 mm 6 mps 679 mmHg 57%
    14:00 +9°C° 0.1 mm 7 mps 679 mmHg 55%
    15:00 +9°C° 0.1 mm 7 mps 679 mmHg 53%
    16:00 +9°C° 0.1 mm 8 mps 679 mmHg 50%
    17:00 +7°C° 0 mm 8 mps 679 mmHg 59%
    18:00 +5°C° 0 mm 7 mps 679 mmHg 68%
    19:00 +4°C° 0 mm 7 mps 679 mmHg 77%
    20:00 +4°C° 0 mm 7 mps 680 mmHg 78%
    21:00 +2°C° 0 mm 8 mps 680 mmHg 79%
    22:00 +2°C° 0 mm 9 mps 680 mmHg 81%
    23:00 +2°C° 0 mm 8 mps 680 mmHg 81%

    Day after tomorrow, 22 January, Tuesday

    Time Temperature Precipitation Wind Pressure Humidity
    00:00 +1°C° 0 mm 8 mps 681 mmHg 80%
    01:00 +1°C° 0 mm 8 mps 681 mmHg 80%
    02:00 +1°C° 0 mm 8 mps 681 mmHg 81%
    03:00 +2°C° 0 mm 7 mps 681 mmHg 81%
    04:00 +2°C° 0 mm 7 mps 681 mmHg 82%
    05:00 +1°C° 0 mm 6 mps 681 mmHg 86%
    06:00 0°C° 0 mm 5 mps 681 mmHg 89%
    07:00 0°C° 0 mm 4 mps 681 mmHg 93%
    08:00 +1°C° 0 mm 5 mps 681 mmHg 85%
    09:00 +2°C° 0 mm 5 mps 682 mmHg 76%
    10:00 +2°C° 0 mm 6 mps 682 mmHg 68%
    11:00 +3°C° 0 mm 6 mps 682 mmHg 62%
    12:00 +4°C° 0 mm 6 mps 682 mmHg 55%
    13:00 +5°C° 0 mm 6 mps 681 mmHg 49%
    14:00 +6°C° 0 mm 5 mps 681 mmHg 47%
    15:00 +7°C° 0 mm 5 mps 680 mmHg 45%
    16:00 +7°C° 0 mm 4 mps 680 mmHg 43%
    17:00 +7°C° 0 mm 3 mps 680 mmHg 47%
    18:00 +6°C° 0 mm 2 mps 680 mmHg 50%
    19:00 +7°C° 0 mm 1 mps 680 mmHg 54%
    20:00 +6°C° 0 mm 1 mps 679 mmHg 58%
    21:00 +6°C° 0 mm 1 mps 679 mmHg 62%
    22:00 +4°C° 0 mm 2 mps 679 mmHg 66%
    23:00 +4°C° 0 mm 2 mps 679 mmHg 70%

    23 January, Wednesday

    Time Temperature Precipitation Wind Pressure Humidity
    00:00 +3°C° 0 mm 2 mps 678 mmHg 74%
    01:00 +3°C° 0 mm 2 mps 678 mmHg 78%
    02:00 +2°C° 0 mm 2 mps 677 mmHg 80%
    03:00 +2°C° 0 mm 2 mps 676 mmHg 81%
    04:00 +2°C° 0 mm 2 mps 675 mmHg 83%
    05:00 +1°C° 0 mm 3 mps 675 mmHg 81%
    06:00 +1°C° 0 mm 3 mps 675 mmHg 80%
    07:00 0°C° 0 mm 3 mps 674 mmHg 79%
    08:00 +1°C° 0 mm 4 mps 674 mmHg 72%
    09:00 +2°C° 0 mm 5 mps 674 mmHg 65%
    10:00 +3°C° 0 mm 7 mps 674 mmHg 59%
    11:00 +3°C° 0.1 mm 7 mps 674 mmHg 59%
    12:00 +4°C° 0.1 mm 8 mps 674 mmHg 59%
    13:00 +3°C° 0.1 mm 9 mps 673 mmHg 59%
    14:00 +3°C° 0.1 mm 9 mps 673 mmHg 59%
    15:00 +3°C° 0.1 mm 9 mps 673 mmHg 58%
    16:00 +3°C° 0.1 mm 10 mps 672 mmHg 58%
    17:00 +3°C° 0 mm 9 mps 672 mmHg 59%
    18:00 +3°C° 0 mm 7 mps 672 mmHg 61%
    19:00 +3°C° 0 mm 6 mps 671 mmHg 62%
    20:00 +2°C° 0.1 mm 7 mps 671 mmHg 64%
    21:00 +1°C° 0.1 mm 8 mps 670 mmHg 65%
    22:00 +1°C° 0.1 mm 9 mps 670 mmHg 67%
    23:00 +1°C° 0.2 mm 10 mps 669 mmHg 71%

    24 January, Thursday

    Time Temperature Precipitation Wind Pressure Humidity
    00:00 +1°C° 0.2 mm 10 mps 669 mmHg 76%
    01:00 +1°C° 0.2 mm 11 mps 668 mmHg 80%
    02:00 0°C° 0.8 mm 10 mps 668 mmHg 83%
    03:00 -2°C° 0.8 mm 10 mps 668 mmHg 85%
    04:00 -4°C° 0.8 mm 9 mps 668 mmHg 87%
    05:00 -4°C° 0.2 mm 9 mps 668 mmHg 85%
    06:00 -4°C° 0.2 mm 10 mps 668 mmHg 83%
    07:00 -5°C° 0.2 mm 10 mps 668 mmHg 81%
    08:00 -6°C° 0 mm 11 mps 668 mmHg 79%
    09:00 -5°C° 0 mm 13 mps 668 mmHg 76%
    10:00 -5°C° 0 mm 14 mps 668 mmHg 74%
    11:00 -4°C° 0.1 mm 15 mps 668 mmHg 73%
    12:00 -4°C° 0.1 mm 16 mps 668 mmHg 72%
    13:00 -3°C° 0.1 mm 18 mps 667 mmHg 71%
    14:00 -3°C° 0.1 mm 18 mps 668 mmHg 71%
    15:00 -3°C° 0.1 mm 19 mps 668 mmHg 72%
    16:00 -3°C° 0.1 mm 20 mps 668 mmHg 72%
    17:00 -3°C° 0.9 mm 17 mps 669 mmHg 78%
    18:00 -3°C° 0.9 mm 15 mps 669 mmHg 85%
    19:00 -3°C° 0.9 mm 12 mps 670 mmHg 91%
    20:00 -2°C° 0.2 mm 13 mps 671 mmHg 91%
    21:00 -2°C° 0.2 mm 14 mps 671 mmHg 92%
    22:00 -2°C° 0.2 mm 16 mps 672 mmHg 93%
    23:00 -2°C° 0.5 mm 16 mps 673 mmHg 93%

    25 January, Friday

    Time Temperature Precipitation Wind Pressure Humidity
    00:00 -2°C° 0.5 mm 16 mps 673 mmHg 93%
    01:00 -2°C° 0.5 mm 16 mps 674 mmHg 93%
    02:00 -1°C° 0.1 mm 15 mps 674 mmHg 93%
    03:00 -3°C° 0.1 mm 15 mps 674 mmHg 94%
    04:00 -2°C° 0.1 mm 14 mps 675 mmHg 94%
    05:00 -2°C° 0.1 mm 13 mps 675 mmHg 94%
    06:00 -2°C° 0.1 mm 12 mps 676 mmHg 93%
    07:00 -2°C° 0.1 mm 12 mps 677 mmHg 92%
    08:00 -2°C° 0.2 mm 12 mps 677 mmHg 90%
    09:00 -2°C° 0.2 mm 13 mps 678 mmHg 88%
    10:00 -2°C° 0.2 mm 13 mps 679 mmHg 86%
    11:00 -2°C° 0.1 mm 14 mps 679 mmHg 85%
    12:00 -1°C° 0.1 mm 14 mps 680 mmHg 83%
    13:00 -1°C° 0.1 mm 14 mps 680 mmHg 82%
    14:00 -1°C° 0.1 mm 13 mps 680 mmHg 81%
    15:00 -1°C° 0.1 mm 13 mps 680 mmHg 81%
    16:00 -1°C° 0.1 mm 13 mps 680 mmHg 80%
    17:00 -1°C° 0 mm 12 mps 680 mmHg 82%
    18:00 -2°C° 0 mm 11 mps 680 mmHg 84%
    19:00 -2°C° 0 mm 10 mps 681 mmHg 87%
    20:00 -1°C° 0 mm 9 mps 681 mmHg 88%
    21:00 -1°C° 0 mm 9 mps 681 mmHg 90%
    22:00 -1°C° 0 mm 8 mps 681 mmHg 91%
    23:00 0°C° 0.1 mm 8 mps 681 mmHg 92%
    Show more